Tracking 19193 objects as of 24-Jun-2018
HD Live streaming from Space Station
objects crossing your sky now

FENGYUN 1C DEB

Track FENGYUN 1C DEB now!
10-day predictions


NORAD ID: 31040
Int'l Code: 1999-025BEJ
Perigee: 803.1 km
Apogee: 899.7 km
Inclination: 98.7 °
Period: 101.8 minutes
Semi major axis: 7222 km
RCS: 0.0032 m2 (small)
Launch date: May 10, 1999
Source: People's Republic of China (PRC)
Launch site: Taiyaun Space Center, China (TSC)

Note: This is SATELLITE DEBRIS
aabbcc
Your satellite tracking list
Your tracking list is empty




NASA's NSSDC Master Catalog

Two Line Element Set (TLE):
1 31040U 99025BEJ 18174.58956309  .00000029  00000-0  36558-4 0  9991
2 31040  98.7413 207.8497 0066834  90.7788  60.3027 14.14425215581028
Source of the keplerian elements: AFSPC